Location: White Sands National Monument
(32.8140°N, 106.2665°W)
Time: 23:27:27
(UTC-06:00)

Daily predictions for brighter satellites

Satellite Brightness Start Highest point End
(mag) Time Altitude Azimuth Time Altitude Azimuth Time Altitude Azimuth
Meteor 1-24 Rocket 4.1 19:42:34 10° N 19:47:51 44° E 19:53:16 10° SSE
ALOS 2.6 19:47:07 10° SSE 19:51:34 47° ENE 19:56:03 10° N
Cosmos 2082 Rocket 4.0 19:49:40 10° NNE 19:51:44 12° NE 19:53:47 10° ENE
NOAA 12 4.2 19:46:32 10° SSE 19:51:52 90° NE 19:57:11 10° NNW
Cosmos 1867 4.4 19:48:03 10° S 19:52:41 29° ESE 19:57:20 10° NE
Cosmos 2123 Rocket 4.4 19:49:39 10° N 19:55:37 42° E 20:01:29 10° SSE
Cosmos 1766 3.2 19:54:01 10° S 19:57:49 61° E 20:01:39 10° NNE
Meteor 2-5 Rocket 4.1 19:56:51 10° NNW 20:02:36 76° W 20:08:27 10° S
Spot 2 Rocket 4.0 19:58:46 10° SE 20:03:27 39° ENE 20:08:11 10° N
COSMOS 2406 3.6 20:00:01 10° NNW 20:05:44 68° WSW 20:11:22 10° S
ISS -2.3 20:04:00 10° S 20:06:19 18° SE 20:07:14 16° ESE
USA 215 3.6 20:00:26 10° ENE 20:06:32 41° SE 20:12:35 10° SSW
Resurs 1-3 4.1 20:05:34 10° SE 20:09:35 37° ENE 20:13:38 10° N
Delta 168 4.1 20:12:44 10° SW 20:15:41 21° S 20:17:13 15° SE
Aurora 2 Rocket 4.4 20:11:27 10° SW 20:17:39 30° S 20:20:55 17° ESE
RESURS DK-1 2.4 20:14:04 10° NNW 20:18:09 57° ENE 20:21:41 13° SE
Envisat 4.3 20:20:13 18° E 20:21:38 21° ENE 20:25:20 10° NNE
CZ-2D R/B 3.5 20:22:56 13° SSE 20:26:11 48° ENE 20:29:55 10° N
Lacrosse 5 3.5 20:21:51 10° WSW 20:26:26 34° NW 20:31:02 10° NNE
Cosmos 1125 Rocket 3.4 20:23:39 10° S 20:28:45 62° ESE 20:33:53 10° NNE
Cosmos 1805 3.1 20:27:24 10° S 20:31:17 81° E 20:35:11 10° N
SAR-Lupe-4 4.2 20:30:39 31° E 20:31:18 34° ENE 20:34:34 10° N
Tiangong 1 1.3 20:31:11 10° NW 20:34:01 45° NNE 20:34:26 42° NE
HJ-1C 4.4 20:31:26 10° S 20:34:42 47° W 20:38:01 10° NNW
Cosmos 2173 Rocket 4.5 20:31:58 10° SSE 20:37:25 35° E 20:42:56 10° NNE
Timation 1 Rocket 4.3 20:31:38 10° SSW 20:37:38 89° WNW 20:43:41 10° NNE
Okean 3 Rocket 3.4 20:34:50 10° N 20:39:14 77° E 20:43:39 10° S
Geosat 4.1 20:34:42 10° NNE 20:39:44 77° WNW 20:44:44 10° SSW
USA 186 3.9 20:46:32 11° N 20:46:32 11° N 20:46:40 10° N
Cosmos 1470 3.8 20:47:42 29° NE 20:47:42 29° NE 20:50:05 10° NNE
SL-27 R/B 3.7 20:44:20 10° NNW 20:47:45 42° WSW 20:51:11 10° S
In-Cosmos 22 4.1 20:42:50 10° N 20:48:08 79° W 20:53:24 10° S
SeaSat 1 3.2 20:44:15 10° S 20:49:01 51° WSW 20:53:49 10° NW
SAR-Lupe-1 4.2 20:50:23 52° ENE 20:50:23 52° ENE 20:53:40 10° N
Delta 128 4.0 20:48:30 10° WSW 20:52:46 45° S 20:53:28 41° SSE
Meteor 1-29 2.8 20:51:22 10° NNE 20:54:49 77° E 20:54:49 77° E
Yuri Rocket 3.7 20:52:05 10° WSW 20:55:59 37° S 20:56:31 36° S
Meteor 1-4 Rocket 3.3 20:53:36 10° SSW 20:56:59 51° W 21:00:23 10° N
GP-B 2.9 20:56:43 31° SSE 20:58:46 76° E 21:03:12 10° N
COSMOS 2487 4.2 20:56:00 10° N 20:57:38 22° NNE 20:57:38 22° NNE
Cosmos 1076 Rocket 3.3 20:56:41 10° N 21:00:56 87° E 21:02:04 48° S
Cosmos 2278 Rocket 4.2 20:56:59 10° WSW 21:01:52 29° WNW 21:06:47 10° N
Cosmos 1833 Rocket 3.0 20:57:17 10° N 21:02:37 43° ENE 21:02:59 42° ENE
Resurs 01 Rocket 2.9 20:59:05 10° SSW 21:03:11 39° W 21:07:20 10° NNW
SJ-11-01 4.5 21:04:42 50° ENE 21:04:42 50° ENE 21:09:03 10° N
Cosmos 1818 3.6 20:59:24 10° NNW 21:04:48 62° ENE 21:05:42 53° ESE
Helios 1B rocket 2.9 21:01:26 10° N 21:05:31 61° WNW 21:09:34 10° SSW
Cosmos 2016 Rocket 4.2 21:08:49 46° E 21:08:53 46° E 21:14:45 10° NNE
Delta 2 Rocket 3.5 21:04:26 10° WNW 21:09:00 61° SSW 21:09:04 61° SSW
Helios 1A 3.1 21:10:17 52° SSW 21:11:09 71° WSW 21:15:19 10° NNW
Cosmos 1766 Rocket 3.4 21:07:01 10° N 21:11:30 80° E 21:11:30 80° E
GPS 2-05 Rocket1 3.7 21:09:10 10° W 21:12:01 51° WNW 21:12:01 51° WNW
Cosmos 1269 Rocket 3.9 21:08:40 10° NNW 21:13:57 73° ENE 21:14:28 67° ESE
ATLAS 5 CENTAUR R/B 2.0 21:12:41 10° SW 21:17:15 67° WNW 21:22:10 10° NNE
Cosmos 1953 4.1 21:14:34 10° SW 21:18:14 32° W 21:21:53 10° NNW
Cosmos 1939 Rocket 4.1 21:22:45 36° N 21:22:45 36° N 21:25:16 10° N
Cosmos-2242 3.3 21:20:40 53° SW 21:21:23 64° W 21:25:36 10° N
Cosmos 2100 Rocket 4.0 21:17:13 10° S 21:23:30 83° W 21:29:53 10° N
Cosmos 1271 Rocket 4.3 21:35:45 34° NW 21:35:45 34° NW 21:38:27 10° N
Cosmos 2082 Rocket 2.1 21:30:47 10° NNW 21:36:28 83° WSW 21:36:28 83° WSW
ISS -0.6 21:39:42 10° WSW 21:39:59 12° W 21:39:59 12° W
Cosmos 1802 Rocket 4.1 21:40:57 36° SSW 21:43:36 72° W 21:49:45 10° N
Lacrosse 5 rocket 4.1 21:42:06 10° N 21:42:20 11° N 21:42:20 11° N
Cosmos 158 Rocket 4.4 21:40:06 10° NNW 21:44:33 60° WNW 21:44:33 60° WNW
DASH 3.8 21:37:06 10° W 21:46:07 50° SW 21:46:07 50° SW
USA 215 4.1 21:43:19 10° NNE 21:49:29 46° NW 21:55:38 10° WSW
Envisat 4.2 22:00:25 37° W 22:00:25 37° W 22:05:02 10° NNW
Timation 2 Rocket 4.4 21:59:49 10° NNW 22:05:09 56° WNW 22:05:09 56° WNW
CZ-3 Stage 3 3.2 21:52:10 10° W 22:13:10 70° SW 22:13:10 70° SW
